Новоэкономическое

Украина / Донецкая область     48˚19′40″N   37˚19′55″E
темп.,
°C
ветер,
м/с
пор.,
м/с
влажн.,
%
обл.,
%
осадки,
мм/ч
давл.,
гПа
погр.,
м
5 декабря, сб
сб523:00−2˚вюв612690 0.0 1032446
02:00−3˚в612680 0.0 1032434
05:00−3˚в612710 0.0 1032426
08:00−3˚в612670 0.0 1033430
11:00+1˚в813430 0.0 1033562
14:00+2˚в712310 0.0 1033623
17:00−2˚в713400 0.0 1033435
20:00−3˚в713460 0.0 1034427
6 декабря, вс
вс623:00−4˚в713430 0.0 1034399
02:00−5˚всв713440 0.0 1035393
05:00−6˚всв712480 0.0 1035391
08:00−6˚всв712500 0.0 1035415
11:00−3˚в711460 0.0 1035534
14:00−2˚всв712500 0.0 1034555
17:00−5˚всв713630 0.0 1035510
20:00−6˚в814640 0.0 1035522
7 декабря, пн
пн723:00−6˚в814650 0.0 1035519
02:00−7˚в814680 0.0 1035511
05:00−7˚в815670 0.0 1034501
08:00−7˚в817620 0.0 1034544
11:00−3˚в915440 0.0 1034676
14:00−1˚в914400 0.0 1033745
17:00−4˚в716460 0.0 1033568
20:00−5˚в815530 0.0 1033540
8 декабря, вт
вт823:00−5˚в815550 0.0 1032505
02:00−5˚в816560 0.0 1031485
05:00−5˚в816540 0.0 1031501
08:00−5˚в815500 0.0 1031537
11:00−1˚вюв914370 0.0 1031630
14:00в915350 0.0 1030697
17:00−3˚в716470 0.0 1030567
20:00−4˚в715590 0.0 1030549
9 декабря, ср
ср923:00−4˚в714690 0.0 1029521
02:00−4˚в7148116 0.0 1029578
05:00−3˚в7138798 0.1 1028576
08:00−2˚вюв7138299 0.1 1029609
11:00вюв71276100 0.0 1029741
14:00вюв61075100 0.0 1029660
17:00−2˚вюв5128599 0.0 1029462
20:00−2˚вюв5118698 0.0 1030468